Location: Taukkyan
(23.1052°N, 94.0030°E)
Time: 11:56:44
(UTC+00:00)

USA 229 DEB - Pass Details

Date: 06 July 2020
Orbit: 980 x 1233 km, 63.4° (Epoch: 10 August)

Event Time Altitude Azimuth Distance (km) Brightness Sun altitude
Rises 14:05:24 0° 326° (NW) 4,060 8.0 -19.0°
Reaches altitude 10° 14:08:09 10° 322° (NW) 3,123 7.3 -19.5°
Maximum altitude 14:15:28 54° 248° (WSW) 1,449 4.5 -20.9°
Enters shadow 14:20:57 19° 178° (S) 2,547 5.3 -21.9°
